When you browse on this site, cookies collect data to enhance your experience and personalize the content and advertising you see.
Visit our Privacy Policy to learn more. By continuing to use the site, you agree to this use of cookies and data.
  • In Schweiz
  • Länderverzeichnis
  • Für 7 Tage
  • Wassertemperatur
  • Satellitenkarten
  • Wetterkarte
  • Widgets
  • user-avatar
    Anmelden

    Stündliche Wetter Canberra

    Heute, 20 März, Mittwoch

    Zeit Temperatur Niederschläge Wind Luftdruck Luftfeuchtigkeit
    00:00 +16°C° 0 mm 1 m/S 708 mmHg 96%
    01:00 +16°C° 0 mm 1 m/S 708 mmHg 96%
    02:00 +16°C° 0 mm 1 m/S 708 mmHg 96%
    03:00 +16°C° 0 mm 1 m/S 708 mmHg 95%
    04:00 +16°C° 0 mm 1 m/S 708 mmHg 95%
    05:00 +16°C° 0 mm 1 m/S 708 mmHg 94%
    06:00 +16°C° 0 mm 1 m/S 708 mmHg 92%
    07:00 +16°C° 0 mm 1 m/S 709 mmHg 91%
    08:00 +20°C° 0 mm 1 m/S 709 mmHg 80%
    09:00 +23°C° 0 mm 1 m/S 709 mmHg 69%
    10:00 +25°C° 0 mm 1 m/S 710 mmHg 58%
    11:00 +27°C° 0 mm 1 m/S 709 mmHg 53%
    12:00 +28°C° 0 mm 1 m/S 709 mmHg 48%
    13:00 +29°C° 0 mm 1 m/S 709 mmHg 43%
    14:00 +28°C° 0.2 mm 1 m/S 709 mmHg 46%
    15:00 +27°C° 0.2 mm 1 m/S 708 mmHg 49%
    16:00 +26°C° 0.2 mm 1 m/S 708 mmHg 53%
    17:00 +25°C° 0.5 mm 2 m/S 708 mmHg 63%
    18:00 +23°C° 0.5 mm 2 m/S 708 mmHg 73%
    19:00 +20°C° 0.5 mm 3 m/S 708 mmHg 84%
    20:00 +19°C° 0 mm 2 m/S 709 mmHg 87%
    21:00 +19°C° 0 mm 2 m/S 709 mmHg 91%
    22:00 +18°C° 0 mm 2 m/S 709 mmHg 95%
    23:00 +19°C° 0 mm 1 m/S 709 mmHg 94%

    Morgen, 21 März, Donnerstag

    Zeit Temperatur Niederschläge Wind Luftdruck Luftfeuchtigkeit
    00:00 +19°C° 0 mm 1 m/S 709 mmHg 93%
    01:00 +19°C° 0 mm 1 m/S 709 mmHg 92%
    02:00 +18°C° 0 mm 1 m/S 709 mmHg 93%
    03:00 +18°C° 0 mm 1 m/S 709 mmHg 94%
    04:00 +16°C° 0 mm 1 m/S 709 mmHg 95%
    05:00 +18°C° 0 mm 1 m/S 709 mmHg 94%
    06:00 +18°C° 0 mm 1 m/S 709 mmHg 93%
    07:00 +18°C° 0 mm 1 m/S 710 mmHg 93%
    08:00 +20°C° 0 mm 1 m/S 710 mmHg 82%
    09:00 +23°C° 0 mm 2 m/S 711 mmHg 71%
    10:00 +25°C° 0 mm 2 m/S 711 mmHg 60%
    11:00 +26°C° 0.1 mm 2 m/S 711 mmHg 56%
    12:00 +27°C° 0.1 mm 2 m/S 710 mmHg 53%
    13:00 +27°C° 0.1 mm 2 m/S 710 mmHg 50%
    14:00 +27°C° 1.2 mm 2 m/S 710 mmHg 54%
    15:00 +26°C° 1.2 mm 2 m/S 709 mmHg 59%
    16:00 +25°C° 1.2 mm 2 m/S 709 mmHg 64%
    17:00 +23°C° 1.4 mm 2 m/S 709 mmHg 72%
    18:00 +21°C° 1.4 mm 2 m/S 709 mmHg 80%
    19:00 +19°C° 1.4 mm 2 m/S 709 mmHg 88%
    20:00 +19°C° 0.2 mm 2 m/S 710 mmHg 90%
    21:00 +18°C° 0.2 mm 2 m/S 710 mmHg 92%
    22:00 +18°C° 0.2 mm 2 m/S 711 mmHg 95%
    23:00 +18°C° 0 mm 2 m/S 710 mmHg 94%

    übermorgen, 22 März, Freitag

    Zeit Temperatur Niederschläge Wind Luftdruck Luftfeuchtigkeit
    00:00 +18°C° 0 mm 2 m/S 710 mmHg 93%
    01:00 +18°C° 0 mm 2 m/S 710 mmHg 92%
    02:00 +18°C° 0 mm 2 m/S 710 mmHg 92%
    03:00 +18°C° 0 mm 2 m/S 710 mmHg 91%
    04:00 +18°C° 0 mm 2 m/S 710 mmHg 91%
    05:00 +19°C° 0 mm 1 m/S 710 mmHg 90%
    06:00 +19°C° 0 mm 1 m/S 711 mmHg 90%
    07:00 +19°C° 0 mm 1 m/S 711 mmHg 90%
    08:00 +20°C° 0 mm 1 m/S 711 mmHg 84%
    09:00 +20°C° 0 mm 2 m/S 711 mmHg 79%
    10:00 +21°C° 0 mm 2 m/S 712 mmHg 73%
    11:00 +23°C° 0 mm 2 m/S 711 mmHg 68%
    12:00 +24°C° 0 mm 1 m/S 711 mmHg 64%
    13:00 +25°C° 0 mm 1 m/S 711 mmHg 59%
    14:00 +26°C° 0 mm 1 m/S 710 mmHg 56%
    15:00 +26°C° 0 mm 1 m/S 710 mmHg 53%
    16:00 +26°C° 0 mm 1 m/S 709 mmHg 50%
    17:00 +24°C° 0.7 mm 1 m/S 709 mmHg 61%
    18:00 +21°C° 0.7 mm 2 m/S 709 mmHg 72%
    19:00 +19°C° 0.7 mm 2 m/S 709 mmHg 83%
    20:00 +19°C° 0 mm 2 m/S 710 mmHg 87%
    21:00 +18°C° 0 mm 2 m/S 710 mmHg 92%
    22:00 +18°C° 0 mm 2 m/S 710 mmHg 96%
    23:00 +19°C° 0 mm 1 m/S 710 mmHg 95%

    23 März, Samstag

    Zeit Temperatur Niederschläge Wind Luftdruck Luftfeuchtigkeit
    00:00 +19°C° 0 mm 1 m/S 709 mmHg 94%
    01:00 +19°C° 0 mm 1 m/S 709 mmHg 94%
    02:00 +18°C° 0 mm 1 m/S 709 mmHg 94%
    03:00 +18°C° 0 mm 1 m/S 708 mmHg 93%
    04:00 +18°C° 0 mm 1 m/S 708 mmHg 93%
    05:00 +18°C° 0 mm 1 m/S 708 mmHg 93%
    06:00 +16°C° 0 mm 0 m/S 708 mmHg 93%
    07:00 +16°C° 0 mm 0 m/S 708 mmHg 93%
    08:00 +19°C° 0 mm 1 m/S 708 mmHg 86%
    09:00 +20°C° 0 mm 1 m/S 709 mmHg 79%
    10:00 +22°C° 0 mm 1 m/S 709 mmHg 73%
    11:00 +24°C° 0 mm 2 m/S 709 mmHg 64%
    12:00 +26°C° 0 mm 3 m/S 708 mmHg 56%
    13:00 +28°C° 0 mm 3 m/S 708 mmHg 47%
    14:00 +28°C° 0 mm 3 m/S 707 mmHg 46%
    15:00 +28°C° 0 mm 3 m/S 707 mmHg 45%
    16:00 +28°C° 0 mm 3 m/S 706 mmHg 44%
    17:00 +26°C° 0 mm 2 m/S 706 mmHg 49%
    18:00 +25°C° 0 mm 2 m/S 706 mmHg 54%
    19:00 +23°C° 0 mm 1 m/S 706 mmHg 59%
    20:00 +23°C° 0 mm 1 m/S 706 mmHg 61%
    21:00 +22°C° 0 mm 1 m/S 706 mmHg 62%
    22:00 +22°C° 0 mm 1 m/S 706 mmHg 64%
    23:00 +22°C° 0.2 mm 1 m/S 706 mmHg 67%

    24 März, Sonntag

    Zeit Temperatur Niederschläge Wind Luftdruck Luftfeuchtigkeit
    00:00 +21°C° 0.2 mm 1 m/S 706 mmHg 70%
    01:00 +19°C° 0.2 mm 0 m/S 705 mmHg 73%
    02:00 +19°C° 0.1 mm 0 m/S 705 mmHg 74%
    03:00 +19°C° 0.1 mm 0 m/S 705 mmHg 74%
    04:00 +18°C° 0.1 mm 0 m/S 705 mmHg 75%
    05:00 +20°C° 0 mm 1 m/S 706 mmHg 76%
    06:00 +20°C° 0 mm 1 m/S 706 mmHg 77%
    07:00 +20°C° 0 mm 1 m/S 706 mmHg 78%
    08:00 +21°C° 0 mm 1 m/S 706 mmHg 72%
    09:00 +23°C° 0 mm 2 m/S 707 mmHg 66%
    10:00 +24°C° 0 mm 3 m/S 707 mmHg 60%
    11:00 +26°C° 0 mm 4 m/S 707 mmHg 53%
    12:00 +28°C° 0 mm 4 m/S 707 mmHg 45%
    13:00 +29°C° 0 mm 5 m/S 707 mmHg 37%
    14:00 +28°C° 0 mm 5 m/S 706 mmHg 40%
    15:00 +27°C° 0 mm 5 m/S 706 mmHg 44%
    16:00 +26°C° 0 mm 5 m/S 706 mmHg 47%
    17:00 +25°C° 0 mm 5 m/S 706 mmHg 53%
    18:00 +23°C° 0 mm 4 m/S 706 mmHg 59%
    19:00 +21°C° 0 mm 4 m/S 706 mmHg 65%
    20:00 +21°C° 0 mm 4 m/S 706 mmHg 67%
    21:00 +20°C° 0 mm 4 m/S 706 mmHg 70%
    22:00 +20°C° 0 mm 5 m/S 707 mmHg 73%
    23:00 +20°C° 0.2 mm 5 m/S 706 mmHg 73%

    25 März, Montag

    Zeit Temperatur Niederschläge Wind Luftdruck Luftfeuchtigkeit
    00:00 +20°C° 0.2 mm 6 m/S 706 mmHg 73%
    01:00 +20°C° 0.2 mm 6 m/S 705 mmHg 73%
    02:00 +20°C° 0.1 mm 6 m/S 705 mmHg 75%
    03:00 +20°C° 0.1 mm 6 m/S 705 mmHg 78%
    04:00 +20°C° 0.1 mm 5 m/S 704 mmHg 80%
    05:00 +19°C° 0 mm 6 m/S 704 mmHg 81%
    06:00 +18°C° 0 mm 7 m/S 705 mmHg 81%
    07:00 +18°C° 0 mm 7 m/S 705 mmHg 82%
    08:00 +20°C° 0 mm 8 m/S 705 mmHg 76%
    09:00 +21°C° 0 mm 8 m/S 705 mmHg 70%
    10:00 +22°C° 0 mm 9 m/S 705 mmHg 64%
    11:00 +23°C° 0 mm 9 m/S 705 mmHg 55%
    12:00 +23°C° 0 mm 8 m/S 705 mmHg 46%
    13:00 +24°C° 0 mm 8 m/S 705 mmHg 36%
    14:00 +23°C° 0 mm 7 m/S 705 mmHg 36%
    15:00 +23°C° 0 mm 7 m/S 705 mmHg 36%
    16:00 +22°C° 0 mm 6 m/S 705 mmHg 36%
    17:00 +20°C° 0 mm 5 m/S 706 mmHg 43%
    18:00 +18°C° 0 mm 4 m/S 707 mmHg 50%
    19:00 +16°C° 0 mm 2 m/S 707 mmHg 58%
    20:00 +15°C° 0 mm 2 m/S 707 mmHg 60%
    21:00 +15°C° 0 mm 2 m/S 708 mmHg 62%
    22:00 +14°C° 0 mm 1 m/S 708 mmHg 64%
    23:00 +13°C° 0 mm 1 m/S 708 mmHg 63%
    Mehr zeigen